| time (UTC) | temp F | wind direction | speed MPH | gust MPH | rain 1hr in | rain 24hr in | rain mn in | humidity % | barometer mb |
| 20260510023050 | 58 | 360 | 0.0 | 1.0 | 0.00 | 0.00 | 0.00 | 81 | 1015.9 |
| 20260510022550 | 58 | 360 | 0.0 | 1.0 | 0.00 | 0.00 | 0.00 | 81 | 1016.0 |
| 20260510022051 | 58 | 360 | 0.0 | 3.0 | 0.00 | 0.00 | 0.00 | 80 | 1015.9 |
| 20260510021550 | 58 | 360 | 1.0 | 3.0 | 0.00 | 0.00 | 0.00 | 80 | 1015.8 |
| 20260510021048 | 58 | 360 | 0.0 | 2.0 | 0.00 | 0.00 | 0.00 | 79 | 1015.8 |
| 20260510020548 | 59 | 360 | 0.0 | 3.0 | 0.00 | 0.00 | 0.00 | 79 | 1015.9 |
| 20260510020050 | 59 | 360 | 0.0 | 3.0 | 0.00 | 0.00 | 0.00 | 78 | 1015.9 |
| 20260510015548 | 58 | 360 | 0.0 | 2.0 | 0.00 | 0.00 | 0.00 | 78 | 1015.8 |
| 20260510015048 | 58 | 360 | 0.0 | 2.0 | 0.00 | 0.00 | 0.00 | 79 | 1015.8 |
| 20260510014550 | 58 | 360 | 0.0 | 2.0 | 0.00 | 0.00 | 0.00 | 79 | 1015.8 |
| 20260510014047 | 58 | 360 | 0.0 | 3.0 | 0.00 | 0.00 | 0.00 | 78 | 1016.0 |
| 20260510013546 | 58 | 16 | 1.0 | 4.0 | 0.00 | 0.00 | 0.00 | 77 | 1016.0 |
| 20260510013045 | 59 | 360 | 1.0 | 4.0 | 0.00 | 0.00 | 0.00 | 77 | 1015.9 |
| 20260510012546 | 59 | 22 | 2.0 | 4.0 | 0.00 | 0.00 | 0.00 | 76 | 1015.8 |
| 20260510012042 | 59 | 360 | 1.0 | 2.0 | 0.00 | 0.00 | 0.00 | 75 | 1015.9 |
| 20260510011545 | 60 | 360 | 0.0 | 2.0 | 0.00 | 0.00 | 0.00 | 73 | 1015.8 |
| 20260510011043 | 60 | 349 | 0.0 | 2.0 | 0.00 | 0.00 | 0.00 | 72 | 1015.8 |
| 20260510010542 | 61 | 360 | 0.0 | 2.0 | 0.00 | 0.00 | 0.00 | 72 | 1015.7 |
| 20260510010042 | 61 | 360 | 0.0 | 0.0 | 0.00 | 0.00 | 0.00 | 72 | 1015.7 |
| 20260510005542 | 60 | 360 | 0.0 | 0.0 | 0.00 | 0.00 | 0.00 | 73 | 1015.6 |
| 20260510005041 | 60 | 360 | 0.0 | 0.0 | 0.00 | 0.00 | 0.00 | 73 | 1015.6 |
| 20260510004542 | 61 | 360 | 0.0 | 0.0 | 0.00 | 0.00 | 0.00 | 73 | 1015.7 |
| 20260510004042 | 61 | 360 | 0.0 | 0.0 | 0.00 | 0.00 | 0.00 | 73 | 1015.6 |
| 20260510003542 | 61 | 360 | 0.0 | 0.0 | 0.00 | 0.00 | 0.00 | 72 | 1015.6 |
| 20260510003041 | 61 | 350 | 0.0 | 0.0 | 0.00 | 0.00 | 0.00 | 71 | 1015.6 |
| 20260510002543 | 61 | 350 | 0.0 | 0.0 | 0.00 | 0.00 | 0.00 | 71 | 1015.6 |
| 20260510002039 | 62 | 350 | 0.0 | 1.0 | 0.00 | 0.00 | 0.00 | 71 | 1015.6 |
| 20260510001543 | 62 | 350 | 0.0 | 1.0 | 0.00 | 0.00 | 0.00 | 72 | 1015.6 |
| 20260510001039 | 62 | 349 | 0.0 | 2.0 | 0.00 | 0.00 | 0.00 | 72 | 1015.7 |
| 20260510000542 | 61 | 350 | 0.0 | 2.0 | 0.00 | 0.00 | 0.00 | 73 | 1015.7 |
| 20260510000058 | 61 | 349 | 0.0 | 2.0 | 0.00 | 0.00 | 0.00 | 73 | 1015.7 |
| 20260509235538 | 61 | 350 | 0.0 | 2.0 | 0.00 | 0.00 | 0.00 | 72 | 1015.8 |
| 20260509235037 | 61 | 348 | 0.0 | 0.0 | 0.00 | 0.00 | 0.00 | 72 | 1015.8 |
| 20260509234549 | 62 | 348 | 0.0 | 1.0 | 0.00 | 0.00 | 0.00 | 72 | 1015.8 |
| 20260509234037 | 62 | 348 | 0.0 | 2.0 | 0.00 | 0.00 | 0.00 | 71 | 1015.8 |
| 20260509233538 | 62 | 360 | 0.0 | 2.0 | 0.00 | 0.00 | 0.00 | 71 | 1015.9 |
| 20260509233035 | 62 | 360 | 0.0 | 5.0 | 0.00 | 0.00 | 0.00 | 72 | 1015.9 |
| 20260509232535 | 61 | 9 | 2.0 | 5.0 | 0.00 | 0.00 | 0.00 | 72 | 1016.0 |
| 20260509232033 | 61 | 17 | 1.0 | 2.0 | 0.00 | 0.00 | 0.00 | 72 | 1016.0 |
| 20260509231533 | 61 | 17 | 0.0 | 4.0 | 0.00 | 0.00 | 0.00 | 72 | 1016.0 |
| 20260509231032 | 61 | 17 | 1.0 | 5.0 | 0.00 | 0.00 | 0.00 | 72 | 1016.1 |
| 20260509230535 | 60 | 350 | 2.0 | 5.0 | 0.00 | 0.00 | 0.00 | 73 | 1016.1 |
| 20260509230036 | 60 | 346 | 1.0 | 4.0 | 0.00 | 0.00 | 0.00 | 73 | 1016.2 |
| 20260509225532 | 60 | 344 | 1.0 | 5.0 | 0.00 | 0.00 | 0.00 | 73 | 1016.2 |
| 20260509225030 | 60 | 360 | 2.0 | 5.0 | 0.00 | 0.00 | 0.00 | 73 | 1016.2 |
| 20260509224530 | 60 | 360 | 0.0 | 5.0 | 0.00 | 0.00 | 0.00 | 71 | 1016.3 |
| 20260509224030 | 61 | 360 | 2.0 | 6.0 | 0.00 | 0.00 | 0.00 | 71 | 1016.3 |
| 20260509223531 | 60 | 355 | 2.0 | 6.0 | 0.00 | 0.00 | 0.00 | 71 | 1016.3 |
| 20260509223030 | 60 | 355 | 3.0 | 6.0 | 0.00 | 0.00 | 0.00 | 71 | 1016.3 |
| 20260509222529 | 60 | 13 | 2.0 | 6.0 | 0.00 | 0.00 | 0.00 | 71 | 1016.3 |
| 20260509222035 | 60 | 349 | 1.0 | 4.0 | 0.00 | 0.00 | 0.00 | 70 | 1016.3 |
| 20260509221529 | 60 | 34 | 1.0 | 2.0 | 0.00 | 0.00 | 0.00 | 70 | 1016.4 |
| 20260509221029 | 60 | 360 | 0.0 | 2.0 | 0.00 | 0.00 | 0.00 | 70 | 1016.3 |
| 20260509220528 | 60 | 30 | 0.0 | 3.0 | 0.00 | 0.00 | 0.00 | 71 | 1016.4 |
| 20260509220028 | 60 | 360 | 0.0 | 3.0 | 0.00 | 0.00 | 0.00 | 72 | 1016.4 |
| 20260509215528 | 60 | 14 | 1.0 | 4.0 | 0.00 | 0.00 | 0.00 | 72 | 1016.4 |
| 20260509215031 | 59 | 360 | 0.0 | 2.0 | 0.00 | 0.00 | 0.00 | 73 | 1016.4 |
| 20260509214531 | 60 | 50 | 0.0 | 2.0 | 0.00 | 0.00 | 0.00 | 72 | 1016.4 |
| 20260509214027 | 60 | 360 | 0.0 | 3.0 | 0.00 | 0.00 | 0.00 | 72 | 1016.5 |
| 20260509213529 | 60 | 360 | 0.0 | 3.0 | 0.00 | 0.00 | 0.00 | 71 | 1016.5 |
| 20260509213027 | 60 | 52 | 0.0 | 2.0 | 0.00 | 0.00 | 0.00 | 71 | 1016.5 |
| 20260509212526 | 60 | 53 | 0.0 | 4.0 | 0.00 | 0.00 | 0.00 | 71 | 1016.4 |
| 20260509212026 | 60 | 50 | 0.0 | 4.0 | 0.00 | 0.00 | 0.00 | 70 | 1016.5 |
| 20260509211526 | 61 | 20 | 0.0 | 4.0 | 0.00 | 0.00 | 0.00 | 70 | 1016.5 |
| 20260509211025 | 61 | 19 | 0.0 | 2.0 | 0.00 | 0.00 | 0.00 | 70 | 1016.4 |
| 20260509210524 | 60 | 43 | 0.0 | 0.0 | 0.00 | 0.00 | 0.00 | 74 | 1016.4 |
| 20260509210028 | 60 | 334 | 0.0 | 0.0 | 0.00 | 0.00 | 0.00 | 74 | 1016.3 |
| 20260509205522 | 60 | 334 | 0.0 | 0.0 | 0.00 | 0.00 | 0.00 | 73 | 1016.3 |
| 20260509205022 | 60 | 335 | 0.0 | 2.0 | 0.00 | 0.00 | 0.00 | 73 | 1016.2 |
| 20260509204526 | 60 | 331 | 0.0 | 2.0 | 0.00 | 0.00 | 0.00 | 73 | 1016.2 |
| 20260509204025 | 60 | 360 | 1.0 | 3.0 | 0.00 | 0.00 | 0.00 | 75 | 1016.2 |
| 20260509203521 | 59 | 360 | 1.0 | 4.0 | 0.00 | 0.00 | 0.00 | 75 | 1016.1 |
| 20260509203021 | 60 | 18 | 2.0 | 4.0 | 0.00 | 0.00 | 0.00 | 74 | 1016.1 |
| 20260509202521 | 61 | 42 | 0.0 | 3.0 | 0.00 | 0.00 | 0.00 | 74 | 1016.0 |
| 20260509202021 | 61 | 44 | 0.0 | 3.0 | 0.00 | 0.00 | 0.00 | 74 | 1015.9 |
| 20260509201521 | 60 | 44 | 0.0 | 1.0 | 0.00 | 0.00 | 0.00 | 74 | 1015.9 |
| 20260509201020 | 60 | 43 | 0.0 | 0.0 | 0.00 | 0.00 | 0.00 | 74 | 1016.0 |
| 20260509200523 | 60 | 360 | 0.0 | 0.0 | 0.00 | 0.00 | 0.00 | 74 | 1016.0 |
| 20260509200021 | 60 | 360 | 0.0 | 1.0 | 0.00 | 0.00 | 0.00 | 74 | 1015.9 |
| 20260509195522 | 60 | 360 | 0.0 | 0.0 | 0.00 | 0.00 | 0.00 | 74 | 1015.9 |
| 20260509195020 | 60 | 360 | 0.0 | 0.0 | 0.00 | 0.00 | 0.00 | 74 | 1015.8 |
| 20260509194523 | 60 | 360 | 0.0 | 0.0 | 0.00 | 0.00 | 0.00 | 74 | 1015.9 |
| 20260509194021 | 60 | 360 | 0.0 | 0.0 | 0.00 | 0.00 | 0.00 | 73 | 1015.8 |
| 20260509193519 | 61 | 360 | 0.0 | 1.0 | 0.00 | 0.00 | 0.00 | 73 | 1015.9 |
| 20260509193025 | 61 | 360 | 0.0 | 1.0 | 0.00 | 0.00 | 0.00 | 73 | 1015.8 |
| 20260509192519 | 61 | 360 | 0.0 | 1.0 | 0.00 | 0.00 | 0.00 | 73 | 1015.8 |
| 20260509192019 | 61 | 360 | 0.0 | 1.0 | 0.00 | 0.00 | 0.00 | 72 | 1015.8 |
| 20260509191525 | 61 | 360 | 0.0 | 1.0 | 0.00 | 0.00 | 0.00 | 72 | 1015.8 |
| 20260509191019 | 61 | 360 | 0.0 | 2.0 | 0.00 | 0.00 | 0.00 | 72 | 1015.8 |
| 20260509190518 | 61 | 360 | 0.0 | 2.0 | 0.00 | 0.00 | 0.00 | 71 | 1015.8 |
| 20260509190021 | 61 | 360 | 0.0 | 2.0 | 0.00 | 0.00 | 0.00 | 71 | 1015.8 |
| 20260509185520 | 61 | 54 | 0.0 | 2.0 | 0.00 | 0.00 | 0.00 | 71 | 1015.8 |
| 20260509185020 | 61 | 360 | 0.0 | 2.0 | 0.00 | 0.00 | 0.00 | 71 | 1015.7 |
| 20260509184532 | 61 | 360 | 0.0 | 2.0 | 0.00 | 0.00 | 0.00 | 70 | 1015.6 |
| 20260509184019 | 62 | 360 | 0.0 | 2.0 | 0.00 | 0.00 | 0.00 | 70 | 1015.6 |
| 20260509183518 | 62 | 360 | 0.0 | 0.0 | 0.00 | 0.00 | 0.00 | 69 | 1015.6 |
| 20260509183019 | 62 | 360 | 0.0 | 2.0 | 0.00 | 0.00 | 0.00 | 68 | 1015.5 |
| 20260509182518 | 62 | 360 | 0.0 | 2.0 | 0.00 | 0.00 | 0.00 | 68 | 1015.5 |
| 20260509182017 | 62 | 360 | 0.0 | 2.0 | 0.00 | 0.00 | 0.00 | 68 | 1015.4 |
| 20260509181517 | 62 | 360 | 0.0 | 2.0 | 0.00 | 0.00 | 0.00 | 67 | 1015.3 |
| 20260509181018 | 62 | 360 | 0.0 | 2.0 | 0.00 | 0.00 | 0.00 | 66 | 1015.3 |
| 20260509180518 | 63 | 360 | 0.0 | 3.0 | 0.00 | 0.00 | 0.00 | 65 | 1015.2 |
| 20260509180018 | 63 | 360 | 0.0 | 3.0 | 0.00 | 0.00 | 0.00 | 65 | 1015.2 |
| 20260509175517 | 63 | 360 | 0.0 | 2.0 | 0.00 | 0.00 | 0.00 | 64 | 1015.0 |
| 20260509175017 | 63 | 360 | 1.0 | 2.0 | 0.00 | 0.00 | 0.00 | 63 | 1014.9 |
| 20260509174517 | 64 | 360 | 0.0 | 2.0 | 0.00 | 0.00 | 0.00 | 63 | 1014.8 |
| 20260509174017 | 64 | 90 | 0.0 | 2.0 | 0.00 | 0.00 | 0.00 | 62 | 1014.8 |
| 20260509173516 | 64 | 88 | 0.0 | 2.0 | 0.00 | 0.00 | 0.00 | 61 | 1014.9 |
| 20260509173018 | 64 | 360 | 0.0 | 1.0 | 0.00 | 0.00 | 0.00 | 60 | 1014.8 |
| 20260509172516 | 65 | 360 | 0.0 | 2.0 | 0.00 | 0.00 | 0.00 | 59 | 1014.8 |
| 20260509172016 | 65 | 360 | 0.0 | 2.0 | 0.00 | 0.00 | 0.00 | 59 | 1014.8 |
| 20260509171518 | 65 | 360 | 0.0 | 3.0 | 0.00 | 0.00 | 0.00 | 58 | 1014.7 |
| 20260509171015 | 65 | 360 | 0.0 | 3.0 | 0.00 | 0.00 | 0.00 | 58 | 1014.7 |
| 20260509170516 | 66 | 94 | 0.0 | 3.0 | 0.00 | 0.00 | 0.00 | 57 | 1014.7 |
| 20260509170016 | 66 | 106 | 0.0 | 2.0 | 0.00 | 0.00 | 0.00 | 56 | 1014.7 |
| 20260509165515 | 66 | 77 | 0.0 | 2.0 | 0.00 | 0.00 | 0.00 | 55 | 1014.8 |
| 20260509165015 | 67 | 360 | 0.0 | 3.0 | 0.00 | 0.00 | 0.00 | 54 | 1014.7 |
| 20260509164517 | 67 | 360 | 0.0 | 3.0 | 0.00 | 0.00 | 0.00 | 53 | 1014.7 |
| 20260509164015 | 67 | 360 | 1.0 | 3.0 | 0.00 | 0.00 | 0.00 | 52 | 1014.7 |
| 20260509163522 | 68 | 360 | 1.0 | 3.0 | 0.00 | 0.00 | 0.00 | 51 | 1014.6 |
| 20260509163016 | 68 | 184 | 0.0 | 3.0 | 0.00 | 0.00 | 0.00 | 50 | 1014.7 |
| 20260509162515 | 68 | 360 | 0.0 | 3.0 | 0.00 | 0.00 | 0.00 | 49 | 1014.6 |
| 20260509162016 | 69 | 96 | 1.0 | 3.0 | 0.00 | 0.00 | 0.00 | 48 | 1014.6 |
| 20260509161515 | 69 | 105 | 1.0 | 3.0 | 0.00 | 0.00 | 0.00 | 47 | 1014.5 |
| 20260509161014 | 69 | 49 | 0.0 | 3.0 | 0.00 | 0.00 | 0.00 | 47 | 1014.5 |
| 20260509160514 | 69 | 355 | 1.0 | 4.0 | 0.00 | 0.00 | 0.00 | 46 | 1014.4 |
| 20260509160016 | 70 | 72 | 1.0 | 6.0 | 0.00 | 0.00 | 0.00 | 45 | 1014.4 |
| 20260509155514 | 70 | 107 | 0.0 | 4.0 | 0.00 | 0.00 | 0.00 | 44 | 1014.4 |
| 20260509155013 | 70 | 69 | 0.0 | 3.0 | 0.00 | 0.00 | 0.00 | 44 | 1014.5 |
| 20260509154516 | 71 | 75 | 1.0 | 4.0 | 0.00 | 0.00 | 0.00 | 43 | 1014.5 |
| 20260509154014 | 71 | 106 | 1.0 | 6.0 | 0.00 | 0.00 | 0.00 | 42 | 1014.5 |
| 20260509153514 | 72 | 22 | 1.0 | 6.0 | 0.00 | 0.00 | 0.00 | 42 | 1014.5 |
| 20260509153028 | 72 | 33 | 2.0 | 6.0 | 0.00 | 0.00 | 0.00 | 41 | 1014.4 |
| 20260509152512 | 72 | 46 | 1.0 | 6.0 | 0.00 | 0.00 | 0.00 | 40 | 1014.4 |
| 20260509152022 | 73 | 48 | 1.0 | 4.0 | 0.00 | 0.00 | 0.00 | 39 | 1014.3 |
| 20260509151513 | 73 | 349 | 1.0 | 5.0 | 0.00 | 0.00 | 0.00 | 39 | 1014.4 |
| 20260509151011 | 73 | 48 | 1.0 | 5.0 | 0.00 | 0.00 | 0.00 | 40 | 1014.3 |
| 20260509150511 | 73 | 80 | 1.0 | 4.0 | 0.00 | 0.00 | 0.00 | 39 | 1014.3 |
| 20260509150015 | 73 | 55 | 2.0 | 6.0 | 0.00 | 0.00 | 0.00 | 39 | 1014.4 |
| 20260509145511 | 73 | 281 | 1.0 | 6.0 | 0.00 | 0.00 | 0.00 | 39 | 1014.4 |
| 20260509145015 | 73 | 47 | 1.0 | 6.0 | 0.00 | 0.00 | 0.00 | 39 | 1014.5 |
| 20260509144523 | 74 | 54 | 0.0 | 6.0 | 0.00 | 0.00 | 0.00 | 39 | 1014.5 |
| 20260509144016 | 74 | 38 | 1.0 | 6.0 | 0.00 | 0.00 | 0.00 | 38 | 1014.5 |
| 20260509143509 | 74 | 329 | 1.0 | 5.0 | 0.00 | 0.00 | 0.00 | 37 | 1014.6 |
| 20260509143010 | 74 | 70 | 1.0 | 4.0 | 0.00 | 0.00 | 0.00 | 38 | 1014.6 |
| 20260509142509 | 74 | 314 | 1.0 | 4.0 | 0.00 | 0.00 | 0.00 | 38 | 1014.6 |
| 20260509142012 | 74 | 45 | 1.0 | 9.0 | 0.00 | 0.00 | 0.00 | 38 | 1014.6 |
| 20260509141514 | 74 | 203 | 2.0 | 8.0 | 0.00 | 0.00 | 0.00 | 39 | 1014.6 |
| 20260509141012 | 74 | 63 | 2.0 | 5.0 | 0.00 | 0.00 | 0.00 | 38 | 1014.6 |
| 20260509140509 | 74 | 44 | 1.0 | 3.0 | 0.00 | 0.00 | 0.00 | 38 | 1014.5 |
| 20260509140008 | 74 | 74 | 0.0 | 9.0 | 0.00 | 0.00 | 0.00 | 39 | 1014.6 |
| 20260509135507 | 75 | 19 | 1.0 | 9.0 | 0.00 | 0.00 | 0.00 | 38 | 1014.6 |
| 20260509135008 | 75 | 38 | 2.0 | 7.0 | 0.00 | 0.00 | 0.00 | 38 | 1014.6 |
| 20260509134506 | 74 | 19 | 1.0 | 7.0 | 0.00 | 0.00 | 0.00 | 37 | 1014.7 |
| 20260509134006 | 75 | 44 | 3.0 | 8.0 | 0.00 | 0.00 | 0.00 | 37 | 1014.7 |
| 20260509133509 | 75 | 81 | 3.0 | 8.0 | 0.00 | 0.00 | 0.00 | 38 | 1014.7 |
| 20260509133013 | 75 | 96 | 2.0 | 5.0 | 0.00 | 0.00 | 0.00 | 38 | 1014.7 |
| 20260509132505 | 75 | 252 | 2.0 | 7.0 | 0.00 | 0.00 | 0.00 | 38 | 1014.8 |
| 20260509132003 | 75 | 243 | 3.0 | 7.0 | 0.00 | 0.00 | 0.00 | 38 | 1014.8 |
| 20260509131504 | 75 | 360 | 3.0 | 7.0 | 0.00 | 0.00 | 0.00 | 39 | 1014.9 |
| 20260509131003 | 75 | 41 | 3.0 | 7.0 | 0.00 | 0.00 | 0.00 | 37 | 1014.9 |
| 20260509130504 | 75 | 40 | 1.0 | 5.0 | 0.00 | 0.00 | 0.00 | 38 | 1014.9 |
| 20260509130003 | 75 | 61 | 2.0 | 6.0 | 0.00 | 0.00 | 0.00 | 37 | 1014.9 |
| 20260509125501 | 76 | 227 | 2.0 | 6.0 | 0.00 | 0.00 | 0.00 | 37 | 1015.0 |
| 20260509125001 | 76 | 36 | 2.0 | 5.0 | 0.00 | 0.00 | 0.00 | 39 | 1015.0 |
| 20260509124503 | 75 | 293 | 1.0 | 5.0 | 0.00 | 0.00 | 0.00 | 39 | 1015.2 |
| 20260509124001 | 76 | 60 | 1.0 | 7.0 | 0.00 | 0.00 | 0.00 | 38 | 1015.3 |
| 20260509123601 | 76 | 319 | 1.0 | 7.0 | 0.00 | 0.00 | 0.00 | 38 | 1015.3 |
| 20260509123131 | 75 | 28 | 2.0 | 8.0 | 0.00 | 0.00 | 0.00 | 39 | 1015.4 |
| 20260509122504 | 75 | 57 | 2.0 | 8.0 | 0.00 | 0.00 | 0.00 | 39 | 1015.3 |
| 20260509122006 | 76 | 126 | 2.0 | 8.0 | 0.00 | 0.00 | 0.00 | 39 | 1015.4 |
| 20260509121510 | 76 | 142 | 2.0 | 8.0 | 0.00 | 0.00 | 0.00 | 38 | 1015.4 |
| 20260509121005 | 76 | 29 | 1.0 | 7.0 | 0.00 | 0.00 | 0.00 | 38 | 1015.4 |
| 20260509120504 | 75 | 36 | 2.0 | 7.0 | 0.00 | 0.00 | 0.00 | 38 | 1015.3 |
| 20260509120003 | 76 | 73 | 2.0 | 8.0 | 0.00 | 0.00 | 0.00 | 38 | 1015.3 |
| 20260509115503 | 76 | 94 | 3.0 | 8.0 | 0.00 | 0.00 | 0.00 | 39 | 1015.4 |
| 20260509115002 | 76 | 69 | 2.0 | 9.0 | 0.00 | 0.00 | 0.00 | 39 | 1015.4 |
| 20260509114505 | 76 | 5 | 2.0 | 9.0 | 0.00 | 0.00 | 0.00 | 38 | 1015.4 |
| 20260509114001 | 76 | 338 | 3.0 | 9.0 | 0.00 | 0.00 | 0.00 | 37 | 1015.4 |
| 20260509113503 | 76 | 69 | 3.0 | 7.0 | 0.00 | 0.00 | 0.00 | 37 | 1015.5 |
| 20260509113000 | 76 | 5 | 1.0 | 8.0 | 0.00 | 0.00 | 0.00 | 38 | 1015.5 |
| 20260509112559 | 76 | 55 | 3.0 | 8.0 | 0.00 | 0.00 | 0.00 | 39 | 1015.5 |
| 20260509112059 | 77 | 202 | 2.0 | 6.0 | 0.00 | 0.00 | 0.00 | 36 | 1015.6 |
| 20260509111607 | 77 | 355 | 1.0 | 9.0 | 0.00 | 0.00 | 0.00 | 36 | 1015.6 |
| 20260509111102 | 76 | 223 | 3.0 | 10.0 | 0.00 | 0.00 | 0.00 | 34 | 1015.5 |
| 20260509110559 | 76 | 355 | 2.0 | 10.0 | 0.00 | 0.00 | 0.00 | 32 | 1015.6 |
| 20260509110106 | 76 | 92 | 3.0 | 9.0 | 0.00 | 0.00 | 0.00 | 32 | 1015.7 |
| 20260509105559 | 76 | 64 | 3.0 | 9.0 | 0.00 | 0.00 | 0.00 | 33 | 1015.6 |
| 20260509105059 | 76 | 355 | 3.0 | 8.0 | 0.00 | 0.00 | 0.00 | 33 | 1015.5 |
| 20260509104558 | 76 | 157 | 2.0 | 13.0 | 0.00 | 0.00 | 0.00 | 35 | 1015.5 |
| 20260509104058 | 76 | 200 | 4.0 | 13.0 | 0.00 | 0.00 | 0.00 | 32 | 1015.6 |
| 20260509103557 | 77 | 65 | 3.0 | 14.0 | 0.00 | 0.00 | 0.00 | 33 | 1015.6 |
| 20260509103105 | 77 | 55 | 2.0 | 6.0 | 0.00 | 0.00 | 0.00 | 34 | 1015.5 |
| 20260509102556 | 78 | 97 | 2.0 | 5.0 | 0.00 | 0.00 | 0.00 | 35 | 1015.6 |
| 20260509102055 | 77 | 50 | 2.0 | 5.0 | 0.00 | 0.00 | 0.00 | 33 | 1015.6 |
| 20260509101621 | 77 | 75 | 2.0 | 8.0 | 0.00 | 0.00 | 0.00 | 34 | 1015.7 |
| 20260509101053 | 77 | 47 | 3.0 | 6.0 | 0.00 | 0.00 | 0.00 | 34 | 1015.7 |
| 20260509100554 | 77 | 131 | 2.0 | 8.0 | 0.00 | 0.00 | 0.00 | 33 | 1015.8 |
| 20260509100052 | 77 | 104 | 3.0 | 8.0 | 0.00 | 0.00 | 0.00 | 34 | 1015.8 |
| 20260509095552 | 77 | 60 | 2.0 | 7.0 | 0.00 | 0.00 | 0.00 | 34 | 1016.0 |
| 20260509095052 | 77 | 122 | 2.0 | 7.0 | 0.00 | 0.00 | 0.00 | 34 | 1016.2 |
| 20260509094554 | 77 | 61 | 2.0 | 6.0 | 0.00 | 0.00 | 0.00 | 37 | 1016.2 |
| 20260509094049 | 77 | 117 | 1.0 | 6.0 | 0.00 | 0.00 | 0.00 | 38 | 1016.1 |
| 20260509093549 | 77 | 109 | 2.0 | 4.0 | 0.00 | 0.00 | 0.00 | 38 | 1016.3 |
| 20260509093049 | 76 | 128 | 1.0 | 5.0 | 0.00 | 0.00 | 0.00 | 39 | 1016.2 |
| 20260509092546 | 77 | 224 | 2.0 | 9.0 | 0.00 | 0.00 | 0.00 | 38 | 1016.4 |
| 20260509092045 | 76 | 288 | 3.0 | 7.0 | 0.00 | 0.00 | 0.00 | 41 | 1016.3 |
| 20260509091546 | 76 | 355 | 2.0 | 8.0 | 0.00 | 0.00 | 0.00 | 39 | 1016.4 |
| 20260509091044 | 76 | 157 | 2.0 | 9.0 | 0.00 | 0.00 | 0.00 | 41 | 1016.5 |
| 20260509090544 | 75 | 214 | 2.0 | 9.0 | 0.00 | 0.00 | 0.00 | 42 | 1016.5 |
| 20260509090044 | 75 | 96 | 1.0 | 9.0 | 0.00 | 0.00 | 0.00 | 42 | 1016.5 |
| 20260509085543 | 75 | 148 | 2.0 | 9.0 | 0.00 | 0.00 | 0.00 | 42 | 1016.5 |
| 20260509085043 | 75 | 258 | 2.0 | 5.0 | 0.00 | 0.00 | 0.00 | 42 | 1016.6 |
| 20260509084546 | 76 | 82 | 1.0 | 6.0 | 0.00 | 0.00 | 0.00 | 41 | 1016.6 |
| 20260509084043 | 75 | 184 | 2.0 | 7.0 | 0.00 | 0.00 | 0.00 | 42 | 1016.6 |
| 20260509083540 | 75 | 128 | 3.0 | 9.0 | 0.00 | 0.00 | 0.00 | 41 | 1016.6 |
| 20260509083041 | 74 | 207 | 2.0 | 9.0 | 0.00 | 0.00 | 0.00 | 43 | 1016.6 |
| 20260509082539 | 74 | 42 | 1.0 | 5.0 | 0.00 | 0.00 | 0.00 | 42 | 1016.6 |
| 20260509082038 | 75 | 55 | 2.0 | 4.0 | 0.00 | 0.00 | 0.00 | 43 | 1016.7 |
| 20260509081542 | 74 | 234 | 1.0 | 5.0 | 0.00 | 0.00 | 0.00 | 44 | 1016.6 |
| 20260509081036 | 74 | 245 | 2.0 | 7.0 | 0.00 | 0.00 | 0.00 | 46 | 1016.5 |
| 20260509080535 | 73 | 104 | 2.0 | 7.0 | 0.00 | 0.00 | 0.00 | 47 | 1016.5 |
| 20260509080036 | 72 | 88 | 1.0 | 3.0 | 0.00 | 0.00 | 0.00 | 48 | 1016.5 |
| 20260509075532 | 72 | 76 | 1.0 | 6.0 | 0.00 | 0.00 | 0.00 | 49 | 1016.5 |
| 20260509075034 | 72 | 32 | 2.0 | 6.0 | 0.00 | 0.00 | 0.00 | 49 | 1016.6 |
| 20260509074542 | 72 | 82 | 1.0 | 4.0 | 0.00 | 0.00 | 0.00 | 49 | 1016.6 |
| 20260509074031 | 72 | 62 | 1.0 | 5.0 | 0.00 | 0.00 | 0.00 | 50 | 1016.6 |
| 20260509073530 | 71 | 252 | 2.0 | 5.0 | 0.00 | 0.00 | 0.00 | 50 | 1016.6 |
| 20260509073030 | 71 | 69 | 1.0 | 4.0 | 0.00 | 0.00 | 0.00 | 50 | 1016.6 |
| 20260509072530 | 71 | 76 | 1.0 | 4.0 | 0.00 | 0.00 | 0.00 | 52 | 1016.6 |
| 20260509072029 | 71 | 73 | 1.0 | 4.0 | 0.00 | 0.00 | 0.00 | 52 | 1016.7 |
| 20260509071529 | 70 | 61 | 2.0 | 4.0 | 0.00 | 0.00 | 0.00 | 51 | 1016.7 |
| 20260509071028 | 71 | 63 | 2.0 | 5.0 | 0.00 | 0.00 | 0.00 | 51 | 1016.7 |
| 20260509070527 | 71 | 321 | 1.0 | 5.0 | 0.00 | 0.00 | 0.00 | 52 | 1016.7 |
| 20260509070026 | 69 | 105 | 2.0 | 5.0 | 0.00 | 0.00 | 0.00 | 55 | 1016.7 |
| 20260509065525 | 69 | 101 | 2.0 | 6.0 | 0.00 | 0.00 | 0.00 | 60 | 1016.7 |
| 20260509065025 | 69 | 57 | 0.0 | 4.0 | 0.00 | 0.00 | 0.00 | 60 | 1016.7 |
| 20260509064522 | 68 | 58 | 0.0 | 4.0 | 0.00 | 0.00 | 0.00 | 58 | 1016.8 |
| 20260509064024 | 67 | 58 | 0.0 | 0.0 | 0.00 | 0.00 | 0.00 | 61 | 1016.8 |
| 20260509063518 | 66 | 61 | 0.0 | 0.0 | 0.00 | 0.00 | 0.00 | 66 | 1016.8 |
| 20260509063026 | 65 | 61 | 0.0 | 0.0 | 0.00 | 0.00 | 0.00 | 67 | 1016.8 |
| 20260509062521 | 65 | 60 | 0.0 | 0.0 | 0.00 | 0.00 | 0.00 | 68 | 1016.7 |
| 20260509062020 | 64 | 60 | 0.0 | 0.0 | 0.00 | 0.00 | 0.00 | 72 | 1016.7 |
| 20260509061514 | 63 | 347 | 0.0 | 0.0 | 0.00 | 0.00 | 0.00 | 74 | 1016.7 |
| 20260509061021 | 62 | 360 | 0.0 | 0.0 | 0.00 | 0.00 | 0.00 | 76 | 1016.7 |
| 20260509060511 | 62 | 346 | 0.0 | 0.0 | 0.00 | 0.00 | 0.00 | 76 | 1016.6 |
| 20260509060016 | 61 | 360 | 0.0 | 0.0 | 0.00 | 0.00 | 0.00 | 77 | 1016.5 |
| 20260509055511 | 61 | 335 | 0.0 | 0.0 | 0.00 | 0.00 | 0.00 | 78 | 1016.5 |
| 20260509055011 | 60 | 360 | 0.0 | 2.0 | 0.00 | 0.00 | 0.00 | 80 | 1016.6 |
| 20260509054510 | 60 | 337 | 0.0 | 4.0 | 0.00 | 0.00 | 0.00 | 79 | 1016.6 |
| 20260509054008 | 60 | 337 | 0.0 | 6.0 | 0.00 | 0.00 | 0.00 | 78 | 1016.7 |
| 20260509053508 | 60 | 355 | 1.0 | 3.0 | 0.00 | 0.00 | 0.00 | 74 | 1016.7 |
| 20260509053007 | 60 | 69 | 0.0 | 0.0 | 0.00 | 0.00 | 0.00 | 75 | 1016.7 |
| 20260509052506 | 59 | 69 | 0.0 | 0.0 | 0.00 | 0.00 | 0.00 | 77 | 1016.5 |
| 20260509052005 | 59 | 333 | 0.0 | 0.0 | 0.00 | 0.00 | 0.00 | 79 | 1016.4 |
| 20260509051507 | 59 | 331 | 0.0 | 0.0 | 0.00 | 0.00 | 0.00 | 81 | 1016.4 |
| 20260509051005 | 59 | 331 | 0.0 | 0.0 | 0.00 | 0.00 | 0.00 | 81 | 1016.5 |
| 20260509050505 | 59 | 331 | 0.0 | 0.0 | 0.00 | 0.00 | 0.00 | 81 | 1016.7 |
| 20260509050005 | 59 | 331 | 0.0 | 0.0 | 0.00 | 0.00 | 0.00 | 81 | 1016.9 |
| 20260509045505 | 59 | 331 | 0.0 | 0.0 | 0.00 | 0.00 | 0.00 | 81 | 1016.9 |
| 20260509045005 | 59 | 330 | 0.0 | 0.0 | 0.00 | 0.00 | 0.00 | 82 | 1016.6 |
| 20260509044505 | 59 | 331 | 0.0 | 0.0 | 0.00 | 0.00 | 0.00 | 81 | 1016.7 |
| 20260509044010 | 59 | 330 | 0.0 | 0.0 | 0.00 | 0.00 | 0.00 | 81 | 1016.7 |
| 20260509043508 | 58 | 330 | 0.0 | 0.0 | 0.00 | 0.00 | 0.00 | 82 | 1016.7 |
| 20260509043005 | 58 | 331 | 0.0 | 0.0 | 0.00 | 0.00 | 0.00 | 83 | 1016.6 |
| 20260509042504 | 58 | 331 | 0.0 | 0.0 | 0.00 | 0.00 | 0.00 | 83 | 1016.6 |
| 20260509042006 | 58 | 330 | 0.0 | 0.0 | 0.00 | 0.00 | 0.00 | 83 | 1016.8 |
| 20260509041503 | 58 | 330 | 0.0 | 1.0 | 0.00 | 0.00 | 0.00 | 82 | 1016.8 |
| 20260509041002 | 58 | 360 | 0.0 | 4.0 | 0.00 | 0.00 | 0.00 | 80 | 1016.8 |
| 20260509040501 | 58 | 329 | 0.0 | 5.0 | 0.00 | 0.00 | 0.00 | 78 | 1016.9 |
| 20260509040100 | 58 | 194 | 1.0 | 5.0 | 0.00 | 0.00 | 0.00 | 77 | 1016.9 |
| 20260509035558 | 58 | 360 | 0.0 | 0.0 | 0.00 | 0.00 | 0.00 | 75 | 1016.7 |
| 20260509035058 | 58 | 360 | 0.0 | 0.0 | 0.00 | 0.00 | 0.00 | 73 | 1016.7 |
| 20260509034558 | 58 | 87 | 0.0 | 0.0 | 0.00 | 0.00 | 0.00 | 71 | 1016.5 |
| 20260509034057 | 59 | 360 | 0.0 | 2.0 | 0.00 | 0.00 | 0.00 | 69 | 1016.6 |
| 20260509033557 | 59 | 360 | 0.0 | 2.0 | 0.00 | 0.00 | 0.00 | 70 | 1016.5 |
| 20260509033057 | 58 | 360 | 0.0 | 2.0 | 0.00 | 0.00 | 0.00 | 71 | 1016.5 |
| 20260509032557 | 58 | 360 | 1.0 | 2.0 | 0.00 | 0.00 | 0.00 | 70 | 1016.5 |
| 20260509032055 | 59 | 360 | 0.0 | 1.0 | 0.00 | 0.00 | 0.00 | 70 | 1016.4 |
| 20260509031555 | 58 | 93 | 0.0 | 1.0 | 0.00 | 0.00 | 0.00 | 71 | 1016.4 |
| 20260509031100 | 57 | 360 | 0.0 | 1.0 | 0.00 | 0.00 | 0.00 | 74 | 1016.4 |
| 20260509030558 | 57 | 360 | 0.0 | 1.0 | 0.00 | 0.00 | 0.00 | 75 | 1016.3 |
| 20260509030055 | 57 | 94 | 0.0 | 1.0 | 0.00 | 0.00 | 0.00 | 75 | 1016.4 |
| 20260509025559 | 57 | 360 | 0.0 | 1.0 | 0.00 | 0.00 | 0.00 | 75 | 1016.4 |
| 20260509025055 | 57 | 360 | 0.0 | 1.0 | 0.00 | 0.00 | 0.00 | 75 | 1016.5 |
| 20260509024554 | 57 | 360 | 0.0 | 2.0 | 0.00 | 0.00 | 0.00 | 75 | 1016.2 |
| 20260509024055 | 57 | 360 | 0.0 | 2.0 | 0.00 | 0.00 | 0.00 | 75 | 1016.2 |
| 20260509023553 | 57 | 360 | 0.0 | 0.0 | 0.00 | 0.00 | 0.00 | 75 | 1016.0 |